Date String (YYYY-MM-DD hh:mm:ss) UTC,Instrument flags,absolute air pressure of the measurement (hPa),sample flow rate (lpm),inlet stack bypass flow (lpm),air temperature of the measurement (°C),ambient temperature measured by the external sensor (°C),aerosol sample conditioner tube jacket temperature (°C),OPC LED temperature (°C),internal box temperature (°C),relative humidity of the measurement (%),span deviation,mass concentration of particles derived from Lorenz-Mie calculation of OPC scattering (μg/m³),mass concentration of particles derived from Lorenz-Mie calculation of OPC scattering (μg/m³),mass concentration of particles derived from Lorenz-Mie calculation of OPC scattering (μg/m³)
DateTimeUTC,F1_M11,P_M11,Q1_M11,Q2_M11,T1_M11,T2_M11,T3_M11,T4_M11,T5_M11,U1_M11,ZSPAN_M11,X2_M11,X0_M11,X1_M11
2024-01-27 14:00:00,SystemResetWarning,0836.1,5.00,000.00,019.0,018.1,000.0,027.4,020.2,11.0,0000.0,0001.53,0001.61,0001.47
2024-01-27 14:01:00,SystemResetWarning,0836.1,4.99,000.00,019.0,018.1,000.0,027.4,020.3,11.0,0000.0,0001.53,0001.61,0001.47
2024-01-27 14:02:00,SystemResetWarning,0836.1,4.99,000.00,019.0,018.1,000.0,027.4,020.2,10.9,0000.0,0001.53,0001.82,0001.47
2024-01-27 14:03:00,SystemResetWarning,0836.1,5.00,000.00,019.0,018.2,000.0,027.4,020.3,11.0,0000.0,0001.54,0002.20,0001.47
2024-01-27 14:04:00,SystemResetWarning,0836.1,5.00,000.00,019.0,018.2,000.0,027.4,020.3,10.9,0000.0,0001.52,0002.17,0001.46
2024-01-27 14:05:00,SystemResetWarning,0836.1,5.00,000.00,019.0,018.1,000.0,027.4,020.2,10.8,0000.0,0001.48,0002.10,0001.45
2024-01-27 14:06:00,SystemResetWarning,0836.1,5.00,000.00,019.0,018.1,000.0,027.4,020.3,10.9,0000.0,0001.48,0002.12,0001.45
2024-01-27 14:07:00,SystemResetWarning,0836.1,5.00,000.00,019.0,018.1,000.0,027.4,020.3,10.9,0000.0,0001.48,0002.13,0001.44
2024-01-27 14:08:00,SystemResetWarning,0836.1,5.00,000.00,019.0,018.1,000.0,027.3,020.2,10.9,0000.0,0001.47,0002.11,0001.44
2024-01-27 14:09:00,SystemResetWarning,0836.2,5.00,000.00,019.0,018.1,000.0,027.3,020.2,10.9,0000.0,0001.47,0002.09,0001.44
2024-01-27 14:10:00,SystemResetWarning,0836.2,5.00,000.00,019.0,018.0,000.0,027.3,020.2,10.9,0000.0,0001.48,0002.11,0001.44
2024-01-27 14:11:00,SystemResetWarning,0836.2,5.00,000.00,019.0,018.0,000.0,027.3,020.2,10.9,0000.0,0001.47,0002.09,0001.44
2024-01-27 14:12:00,SystemResetWarning,0836.2,4.99,000.00,019.0,018.0,000.0,027.3,020.2,10.9,0000.0,0001.47,0002.08,0001.44
2024-01-27 14:13:00,SystemResetWarning,0836.2,5.00,000.00,019.0,018.0,000.0,027.3,020.2,11.0,0000.0,0001.46,0001.99,0001.43
2024-01-27 14:14:00,SystemResetWarning,0836.2,5.00,000.00,019.0,018.0,000.0,027.3,020.2,11.0,0000.0,0001.45,0001.50,0001.43
2024-01-27 14:15:00,SystemResetWarning,0836.2,5.00,000.00,019.0,018.0,000.0,027.3,020.2,11.0,0000.0,0001.46,0001.51,0001.43
2024-01-27 14:16:00,SystemResetWarning,0836.2,5.00,000.00,019.0,017.9,000.0,027.3,020.2,11.1,0000.0,0001.47,0001.55,0001.44
2024-01-27 14:17:00,SystemResetWarning,0836.2,5.00,000.00,018.9,017.9,000.0,027.3,020.2,11.1,0000.0,0001.48,0001.57,0001.43
2024-01-27 14:18:00,SystemResetWarning,0836.2,5.00,000.00,018.9,017.9,000.0,027.3,020.2,11.1,0000.0,0001.46,0001.53,0001.42
2024-01-27 14:19:00,SystemResetWarning,0836.2,5.00,000.00,018.9,017.9,000.0,027.3,020.2,11.2,0000.0,0001.45,0001.52,0001.42
2024-01-27 14:20:00,SystemResetWarning,0836.2,5.00,000.00,018.9,017.9,000.0,027.3,020.2,11.3,0000.0,0001.44,0001.51,0001.41
2024-01-27 14:21:00,SystemResetWarning,0836.2,5.00,000.00,018.9,017.9,000.0,027.3,020.2,11.2,0000.0,0001.42,0001.48,0001.39
2024-01-27 14:22:00,SystemResetWarning,0836.3,5.01,000.00,018.9,017.9,000.0,027.3,020.2,11.2,0000.0,0001.42,0001.49,0001.39
2024-01-27 14:23:00,SystemResetWarning,0836.2,5.01,000.00,018.9,017.9,000.0,027.3,020.1,11.2,0000.0,0001.43,0001.51,0001.39
2024-01-27 14:24:00,SystemResetWarning,0836.2,5.01,000.00,018.9,017.9,000.0,027.3,020.1,11.2,0000.0,0001.44,0001.53,0001.40
2024-01-27 14:25:00,SystemResetWarning,0836.2,5.00,000.00,018.9,017.9,000.0,027.3,020.1,11.3,0000.0,0001.45,0001.54,0001.41
2024-01-27 14:26:00,SystemResetWarning,0836.2,5.00,000.00,018.9,017.9,000.0,027.3,020.1,11.3,0000.0,0001.47,0001.58,0001.41
2024-01-27 14:27:00,SystemResetWarning,0836.2,5.00,000.00,018.9,017.9,000.0,027.2,020.1,11.4,0000.0,0001.48,0001.60,0001.41
2024-01-27 14:28:00,SystemResetWarning,0836.2,5.00,000.00,018.9,017.9,000.0,027.2,020.1,11.6,0000.0,0001.48,0001.60,0001.41
2024-01-27 14:29:00,SystemResetWarning,0836.2,5.00,000.00,018.9,017.9,000.0,027.2,020.1,11.6,0000.0,0001.49,0001.61,0001.42
2024-01-27 14:30:00,SystemResetWarning,0836.2,5.00,000.00,018.9,017.9,000.0,027.2,020.1,11.4,0000.0,0001.50,0001.62,0001.42
2024-01-27 14:31:00,SystemResetWarning,0836.2,4.99,000.00,018.9,017.9,000.0,027.2,020.1,11.5,0000.0,0001.50,0001.63,0001.42
2024-01-27 14:32:00,SystemResetWarning,0836.3,5.00,000.00,018.9,017.9,000.0,027.2,020.1,11.6,0000.0,0001.53,0001.68,0001.43
2024-01-27 14:33:00,SystemResetWarning,0836.3,5.00,000.00,018.9,017.9,000.0,027.2,020.2,11.7,0000.0,0001.55,0001.72,0001.44
2024-01-27 14:34:00,SystemResetWarning,0836.3,5.00,000.00,018.9,017.9,000.0,027.2,020.1,11.7,0000.0,0001.54,0001.70,0001.44
2024-01-27 14:35:00,SystemResetWarning,0836.3,5.00,000.00,018.9,017.9,000.0,027.2,020.1,11.7,0000.0,0001.55,0001.72,0001.44
2024-01-27 14:36:00,SystemResetWarning,0836.3,5.01,000.00,018.9,017.9,000.0,027.2,020.1,11.7,0000.0,0001.56,0001.74,0001.42
2024-01-27 14:37:00,SystemResetWarning,0836.4,5.01,000.00,018.9,017.9,000.0,027.2,020.1,11.8,0000.0,0001.54,0001.72,0001.41
2024-01-27 14:38:00,SystemResetWarning,0836.3,5.00,000.00,018.9,017.9,000.0,027.2,020.1,11.9,0000.0,0001.52,0001.66,0001.42
2024-01-27 14:39:00,SystemResetWarning,0836.3,4.99,000.00,018.9,017.9,000.0,027.2,020.1,11.9,0000.0,0001.50,0001.62,0001.41
2024-01-27 14:40:00,SystemResetWarning,0836.3,4.99,000.00,018.9,017.9,000.0,027.2,020.1,11.9,0000.0,0001.49,0001.62,0001.41
2024-01-27 14:41:00,SystemResetWarning,0836.4,5.00,000.00,018.9,017.9,000.0,027.2,020.2,12.0,0000.0,0001.50,0001.62,0001.42
2024-01-27 14:42:00,SystemResetWarning,0836.3,5.00,000.00,018.9,017.9,000.0,027.2,020.1,12.0,0000.0,0001.51,0001.62,0001.43
2024-01-27 14:43:00,SystemResetWarning,0836.4,5.01,000.00,018.9,017.9,000.0,027.2,020.1,12.0,0000.0,0001.52,0001.62,0001.43
2024-01-27 14:44:00,SystemResetWarning,0836.4,5.00,000.00,018.9,018.0,000.0,027.2,020.1,12.0,0000.0,0001.53,0001.65,0001.44
2024-01-27 14:45:00,SystemResetWarning,0836.4,5.00,000.00,018.9,018.0,000.0,027.2,020.1,12.0,0000.0,0001.56,0001.69,0001.46
2024-01-27 14:46:00,SystemResetWarning,0836.4,4.99,000.00,018.9,018.0,000.0,027.2,020.2,12.0,0000.0,0001.56,0001.68,0001.47
2024-01-27 14:47:00,SystemResetWarning,0836.4,4.99,000.00,018.9,018.0,000.0,027.2,020.2,11.9,0000.0,0001.57,0001.68,0001.49
2024-01-27 14:48:00,SystemResetWarning,0836.4,5.00,000.00,018.9,018.0,000.0,027.2,020.2,11.9,0000.0,0001.59,0001.70,0001.51
2024-01-27 14:49:00,SystemResetWarning,0836.4,5.00,000.00,018.9,018.0,000.0,027.2,020.2,12.0,0000.0,0001.60,0001.72,0001.52
2024-01-27 14:50:00,SystemResetWarning,0836.4,5.00,000.00,018.9,018.0,000.0,027.2,020.2,12.0,0000.0,0001.62,0001.74,0001.53
2024-01-27 14:51:00,SystemResetWarning,0836.4,5.00,000.00,018.9,018.0,000.0,027.2,020.2,12.0,0000.0,0001.63,0001.75,0001.55
2024-01-27 14:52:00,SystemResetWarning,0836.4,5.00,000.00,018.9,018.0,000.0,027.2,020.2,12.0,0000.0,0001.65,0001.78,0001.56
2024-01-27 14:53:00,SystemResetWarning,0836.4,5.01,000.00,018.9,018.0,000.0,027.2,020.2,12.0,0000.0,0001.68,0001.81,0001.57
2024-01-27 14:54:00,SystemResetWarning,0836.4,5.01,000.00,018.9,018.1,000.0,027.2,020.2,12.0,0000.0,0001.68,0001.79,0001.58
2024-01-27 14:55:00,SystemResetWarning,0836.4,5.00,000.00,018.9,018.1,000.0,027.2,020.2,11.9,0000.0,0001.68,0001.76,0001.59
2024-01-27 14:56:00,SystemResetWarning,0836.4,5.00,000.00,018.9,018.1,000.0,027.2,020.3,11.9,0000.0,0001.68,0001.76,0001.59
2024-01-27 14:57:00,SystemResetWarning,0836.4,5.00,000.00,018.9,018.1,000.0,027.2,020.2,11.9,0000.0,0001.67,0001.75,0001.60
2024-01-27 14:58:00,SystemResetWarning,0836.4,4.99,000.00,018.9,018.1,000.0,027.2,020.3,11.8,0000.0,0001.67,0001.75,0001.61
2024-01-27 14:59:00,SystemResetWarning,0836.4,4.99,000.00,018.9,018.2,000.0,027.2,020.3,11.8,0000.0,0001.68,0001.75,0001.61
